全球星 M084星 (GLOBALSTAR M084)

导读 | 星芒AI

GLOBALSTAR M084 是 Globalstar 卫星通信公司运营的一颗低轨移动通信卫星,属于其第二代卫星星座(Globalstar 2)的一部分。该卫星设计用于提供全球范围内的语音和数据通信服务,主要面向偏远地区和移动用户。M084 卫星采用 L 波段进行通信,支持手持终端和移动设备接入。它于 2021 年发射,旨在增强 Globalstar 的网络覆盖和系统可靠性,满足应急通信、海事和航空等领域的应用需求。

基本信息
目录编号:
38040
目录名称:
GLOBALSTAR M084
国际标识:
2011-080A
轨道中心:
EARTH
卫星名称:
全球星 M084星
卫星全名:
全球星 M084星 (GLOBALSTAR M084)
卫星状态:
在轨 (已飞行5054 天)
发射日期:
2011-12-28 UTC
国别 :
(GLOB)
星等 :
--
轨道信息
数据来源 国际轨道数据 AOE轨道数据
星历时间 2025-10-28T22:16:43+0800
17小时前
查看轨道信息
2025-10-26T05:00:00+0800
3天前
查看轨道信息
半长轴 7791.75km 7791.745km
偏心率 0.0000242 0.0000615
轨道倾角 52.004° 52.004°
近地点辐角 65.830° 157.363°
升交点赤经 2.332° 10.612°
平近点角 83.096° 225.754°
近地点 1413.426km 1413.13km
远地点 1413.804km 1414.09km
周期 114.081分钟 114.081分钟
每日圈数 12.622643 12.622654
详细信息
固有亮度:
5
最大亮度:
7.2
平衡模式:
三轴稳定
覆盖范围:
全球
运营商:
全球星公司
运营商所在国:
美国
使用方式:
暂无
卫星简介
全球星星座由48颗卫星加8颗备份星组成。这些卫星分布在8个倾角为52度的圆形轨道平面上,每个轨道平面6颗卫星,另有1 颗备用星。轨道高度约为1414km,传输时延和处理时延小于300ms,整个系统的覆盖区为南北纬70度以内的地区。该卫星已退役。
2D轨道图
3D轨道图
轨道高度分析图
轨道倾角分析图
轨道综合分析图
查看轨道综合分析图